| time (UTC) | temp C | wind direction | speed KPH | gust KPH | rain 1hr cm | rain 24hr cm | rain mn cm | humidity % | barometer mb |
| 20260902210521 | 27 | 180 | 8.0 | 14.5 | 0.00 | 4.78 | 4.78 | 75 | 1012.8 |
| 20260902205521 | 27 | 180 | 11.3 | 20.9 | 0.00 | 4.78 | 4.78 | 73 | 1012.7 |
| 20260902204521 | 28 | 180 | 11.3 | 19.3 | 0.00 | 4.78 | 4.78 | 71 | 1012.7 |
| 20260902203541 | 28 | 180 | 11.3 | 20.9 | 0.00 | 4.78 | 4.78 | 72 | 1012.7 |
| 20260902202520 | 28 | 180 | 16.1 | 25.7 | 0.00 | 4.78 | 4.78 | 71 | 1012.8 |
| 20260902201541 | 27 | 203 | 16.1 | 29.0 | 0.00 | 4.78 | 4.78 | 71 | 1012.8 |
| 20260902200521 | 27 | 180 | 16.1 | 27.4 | 0.00 | 4.78 | 4.78 | 72 | 1012.5 |
| 20260902195522 | 28 | 180 | 20.9 | 30.6 | 0.00 | 4.78 | 4.78 | 71 | 1012.3 |
| 20260902194521 | 27 | 158 | 17.7 | 30.6 | 0.00 | 4.78 | 4.78 | 71 | 1012.4 |
| 20260902193520 | 28 | 180 | 16.1 | 22.5 | 0.00 | 4.78 | 4.78 | 70 | 1012.4 |
| 20260902192521 | 28 | 180 | 19.3 | 32.2 | 0.00 | 4.78 | 4.78 | 69 | 1012.5 |
| 20260902191521 | 28 | 180 | 16.1 | 24.1 | 0.00 | 4.78 | 4.78 | 69 | 1012.6 |
| 20260902190520 | 28 | 180 | 16.1 | 30.6 | 0.00 | 4.78 | 4.78 | 68 | 1012.8 |
| 20260902185520 | 28 | 158 | 17.7 | 25.7 | 0.00 | 4.78 | 4.78 | 67 | 1012.8 |
| 20260902184521 | 29 | 158 | 14.5 | 22.5 | 0.00 | 4.78 | 4.78 | 66 | 1013.1 |
| 20260902183540 | 28 | 180 | 12.9 | 27.4 | 0.00 | 4.78 | 4.78 | 65 | 1013.2 |
| 20260902182520 | 28 | 180 | 16.1 | 25.7 | 0.00 | 4.78 | 4.78 | 66 | 1013.4 |
| 20260902181520 | 28 | 158 | 12.9 | 27.4 | 0.00 | 4.78 | 4.78 | 65 | 1013.3 |
| 20260902180520 | 28 | 180 | 14.5 | 22.5 | 0.00 | 4.78 | 4.78 | 66 | 1013.2 |
| 20260902175521 | 28 | 203 | 11.3 | 22.5 | 0.00 | 4.78 | 4.78 | 68 | 1013.1 |
| 20260902174520 | 27 | 203 | 12.9 | 22.5 | 0.00 | 4.78 | 4.78 | 73 | 1013.3 |
| 20260902173520 | 27 | 158 | 17.7 | 27.4 | 0.00 | 4.78 | 4.78 | 73 | 1013.2 |
| 20260902172641 | 26 | 158 | 14.5 | 24.1 | 0.00 | 4.78 | 4.78 | 75 | 1013.0 |
| 20260902171520 | 26 | 180 | 16.1 | 25.7 | 0.00 | 4.78 | 4.78 | 76 | 1013.1 |
| 20260902170520 | 25 | 180 | 16.1 | 30.6 | 0.00 | 4.78 | 4.78 | 77 | 1013.4 |
| 20260902165600 | 25 | 180 | 19.3 | 29.0 | 0.00 | 4.78 | 4.78 | 81 | 1013.3 |
| 20260902164522 | 24 | 158 | 16.1 | 27.4 | 0.00 | 4.78 | 4.78 | 83 | 1013.2 |
| 20260902163520 | 23 | 180 | 14.5 | 22.5 | 0.03 | 4.78 | 4.78 | 87 | 1013.3 |
| 20260902162520 | 21 | 180 | 17.7 | 27.4 | 0.18 | 4.78 | 4.78 | 90 | 1013.5 |
| 20260902161520 | 20 | 180 | 12.9 | 20.9 | 0.66 | 4.78 | 4.78 | 91 | 1013.7 |
| 20260902160540 | 20 | 180 | 11.3 | 17.7 | 1.47 | 4.78 | 4.78 | 91 | 1014.2 |
| 20260902155520 | 20 | 158 | 14.5 | 24.1 | 2.77 | 4.78 | 4.78 | 92 | 1014.2 |
| 20260902154520 | 19 | 180 | 14.5 | 25.7 | 2.92 | 4.78 | 4.78 | 93 | 1014.7 |
| 20260902153520 | 20 | 158 | 16.1 | 22.5 | 3.12 | 4.75 | 4.75 | 93 | 1014.9 |
| 20260902152540 | 20 | 158 | 16.1 | 20.9 | 3.45 | 4.60 | 4.60 | 93 | 1015.8 |
| 20260902151520 | 20 | 203 | 16.1 | 25.7 | 3.63 | 4.11 | 4.11 | 92 | 1016.9 |
| 20260902151053 | -17 | 135 | 12.9 | 14.5 | 2.95 | 3.30 | 3.30 | 93 | |
| 20260902150021 | 20 | 180 | 12.9 | 19.3 | 2.97 | 3.10 | 3.10 | 93 | 1017.0 |
| 20260902145019 | 20 | 293 | 6.4 | 14.5 | 1.91 | 1.96 | 1.96 | 93 | 1017.7 |
| 20260902144040 | 20 | 248 | 3.2 | 4.8 | 1.73 | 1.75 | 1.75 | 93 | 1016.0 |
| 20260902143022 | 20 | 68 | 6.4 | 11.3 | 1.45 | 1.45 | 1.45 | 93 | 1015.1 |
| 20260902142042 | 21 | 225 | 1.6 | 4.8 | 0.74 | 0.74 | 0.74 | 93 | 1016.1 |
| 20260902141022 | 21 | 23 | 4.8 | 9.7 | 0.36 | 0.36 | 0.36 | 92 | 1015.4 |
| 20260902140021 | 21 | 338 | 4.8 | 8.0 | 0.13 | 0.13 | 0.13 | 92 | 1015.6 |
| 20260902135041 | 21 | 0.0 | 3.2 | 0.05 | 0.05 | 0.05 | 92 | 1014.9 | |
| 20260902134042 | 21 | 0.0 | 3.2 | 0.03 | 0.03 | 0.03 | 92 | 1014.5 | |
| 20260902133022 | 21 | 45 | 1.6 | 8.0 | 0.00 | 0.00 | 0.00 | 92 | 1014.8 |
| 20260902132021 | 21 | 0.0 | 3.2 | 0.00 | 0.00 | 0.00 | 92 | 1014.9 | |
| 20260902131021 | 21 | 68 | 3.2 | 8.0 | 0.00 | 0.00 | 0.00 | 93 | 1014.8 |
| 20260902130021 | 21 | 0.0 | 3.2 | 0.00 | 0.00 | 0.00 | 93 | 1014.6 | |
| 20260902125021 | 21 | 68 | 1.6 | 6.4 | 0.00 | 0.00 | 0.00 | 93 | 1014.4 |
| 20260902124021 | 21 | 68 | 1.6 | 4.8 | 0.00 | 0.00 | 0.00 | 93 | 1014.3 |
| 20260902123022 | 21 | 0.0 | 3.2 | 0.00 | 0.00 | 0.00 | 93 | 1014.5 | |
| 20260902122022 | 20 | 0.0 | 1.6 | 0.00 | 0.00 | 0.00 | 93 | 1014.6 | |
| 20260902121021 | 20 | 0.0 | 3.2 | 0.00 | 0.00 | 0.00 | 94 | 1014.2 | |
| 20260902120021 | 20 | 0.0 | 3.2 | 0.00 | 0.00 | 0.00 | 94 | 1013.8 | |
| 20260902115021 | 20 | 0.0 | 0.0 | 0.00 | 0.00 | 0.00 | 94 | 1014.0 | |
| 20260902114021 | 20 | 0.0 | 0.0 | 0.00 | 0.00 | 0.00 | 94 | 1013.8 | |
| 20260902113021 | 20 | 0.0 | 3.2 | 0.00 | 0.00 | 0.00 | 94 | 1013.8 | |
| 20260902112021 | 19 | 0.0 | 1.6 | 0.00 | 0.00 | 0.00 | 94 | 1013.9 | |
| 20260902111021 | 19 | 0.0 | 1.6 | 0.00 | 0.00 | 0.00 | 94 | 1013.8 | |
| 20260902110041 | 19 | 0.0 | 0.0 | 0.00 | 0.00 | 0.00 | 94 | 1013.7 | |
| 20260902105021 | 18 | 0.0 | 0.0 | 0.00 | 0.00 | 0.00 | 94 | 1013.6 | |
| 20260902104021 | 18 | 0.0 | 0.0 | 0.00 | 0.00 | 0.00 | 94 | 1013.6 | |
| 20260902103020 | 18 | 0.0 | 0.0 | 0.00 | 0.00 | 0.00 | 94 | 1013.7 | |
| 20260902102020 | 18 | 0.0 | 0.0 | 0.00 | 0.00 | 0.00 | 94 | 1014.2 | |
| 20260902101041 | 18 | 0.0 | 0.0 | 0.00 | 0.00 | 0.00 | 94 | 1014.2 | |
| 20260902100022 | 18 | 0.0 | 0.0 | 0.00 | 0.00 | 0.00 | 93 | 1014.3 | |
| 20260902095041 | 18 | 0.0 | 1.6 | 0.00 | 0.00 | 0.00 | 93 | 1014.4 | |
| 20260902094043 | 18 | 0.0 | 0.0 | 0.00 | 0.03 | 0.00 | 93 | 1014.3 | |
| 20260902093040 | 18 | 0.0 | 0.0 | 0.00 | 0.15 | 0.00 | 93 | 1014.5 | |
| 20260902092021 | 18 | 0.0 | 0.0 | 0.00 | 0.20 | 0.00 | 93 | 1014.5 | |
| 20260902091020 | 18 | 0.0 | 0.0 | 0.00 | 0.20 | 0.00 | 93 | 1014.3 | |
| 20260902090041 | 18 | 0.0 | 0.0 | 0.00 | 0.20 | 0.00 | 93 | 1014.5 | |
| 20260902085021 | 18 | 0.0 | 0.0 | 0.00 | 0.20 | 0.00 | 93 | 1014.5 | |
| 20260902084020 | 19 | 0.0 | 0.0 | 0.00 | 0.20 | 0.00 | 93 | 1014.6 | |
| 20260902083040 | 19 | 0.0 | 0.0 | 0.00 | 0.20 | 0.00 | 93 | 1014.7 | |
| 20260902082020 | 18 | 0.0 | 0.0 | 0.00 | 0.20 | 0.00 | 93 | 1014.4 | |
| 20260902081021 | 18 | 0.0 | 0.0 | 0.00 | 0.20 | 0.00 | 93 | 1014.5 | |
| 20260902080020 | 19 | 0.0 | 4.8 | 0.00 | 0.20 | 0.00 | 93 | 1014.5 | |
| 20260902075042 | 19 | 0.0 | 0.0 | 0.00 | 0.20 | 0.00 | 93 | 1014.4 | |
| 20260902074020 | 19 | 0.0 | 0.0 | 0.00 | 0.20 | 0.00 | 93 | 1014.4 | |
| 20260902073022 | 19 | 0.0 | 0.0 | 0.00 | 0.20 | 0.00 | 93 | 1014.3 | |
| 20260902072020 | 19 | 0.0 | 1.6 | 0.00 | 0.20 | 0.00 | 93 | 1014.3 | |
| 20260902071023 | 19 | 0.0 | 0.0 | 0.00 | 0.23 | 0.00 | 92 | 1014.1 | |
| 20260902070020 | 19 | 0.0 | 3.2 | 0.00 | 0.33 | 0.00 | 92 | 1014.2 | |
| 20260902065021 | 20 | 0.0 | 3.2 | 0.00 | 0.36 | 0.00 | 92 | 1014.1 | |
| 20260902064020 | 20 | 0.0 | 0.0 | 0.00 | 0.36 | 0.00 | 92 | 1014.2 | |
| 20260902063021 | 20 | 0.0 | 0.0 | 0.00 | 0.36 | 0.00 | 92 | 1014.3 | |
| 20260902062040 | 20 | 0.0 | 0.0 | 0.00 | 0.36 | 0.00 | 92 | 1014.5 | |
| 20260902061020 | 20 | 0.0 | 0.0 | 0.00 | 0.36 | 0.00 | 92 | 1014.4 | |
| 20260902060020 | 20 | 0.0 | 0.0 | 0.00 | 0.36 | 0.00 | 92 | 1014.2 | |
| 20260902055020 | 20 | 0.0 | 0.0 | 0.00 | 0.36 | 0.00 | 92 | 1014.3 | |
| 20260902054020 | 20 | 0.0 | 0.0 | 0.00 | 0.36 | 0.00 | 91 | 1014.3 | |
| 20260902053020 | 20 | 0.0 | 0.0 | 0.00 | 0.36 | 0.00 | 91 | 1014.3 | |
| 20260902052020 | 20 | 0.0 | 0.0 | 0.00 | 0.36 | 0.00 | 91 | 1014.1 | |
| 20260902051040 | 20 | 0.0 | 0.0 | 0.00 | 0.36 | 0.00 | 91 | 1014.1 | |
| 20260902050021 | 20 | 0.0 | 0.0 | 0.00 | 0.36 | 0.00 | 91 | 1014.1 | |
| 20260902045021 | 20 | 0.0 | 0.0 | 0.00 | 0.36 | 0.00 | 91 | 1014.1 | |
| 20260902044021 | 20 | 0.0 | 0.0 | 0.00 | 0.36 | 0.00 | 90 | 1014.1 | |
| 20260902043024 | 20 | 0.0 | 0.0 | 0.00 | 0.36 | 0.00 | 90 | 1014.0 | |
| 20260902042022 | 20 | 0.0 | 0.0 | 0.00 | 0.36 | 0.00 | 90 | 1013.9 | |
| 20260902041021 | 20 | 0.0 | 0.0 | 0.00 | 0.36 | 0.00 | 90 | 1013.9 | |
| 20260902040019 | 21 | 0.0 | 0.0 | 0.00 | 0.38 | 0.38 | 90 | 1013.9 | |
| 20260902035022 | 21 | 0.0 | 0.0 | 0.00 | 0.38 | 0.38 | 90 | 1013.9 | |
| 20260902034022 | 21 | 0.0 | 0.0 | 0.00 | 0.38 | 0.38 | 89 | 1013.8 | |
| 20260902033022 | 21 | 0.0 | 0.0 | 0.00 | 0.38 | 0.38 | 89 | 1013.7 | |
| 20260902032021 | 21 | 0.0 | 0.0 | 0.00 | 0.38 | 0.38 | 89 | 1013.9 | |
| 20260902031041 | 21 | 0.0 | 1.6 | 0.00 | 0.38 | 0.38 | 88 | 1014.0 | |
| 20260902030021 | 21 | 0.0 | 3.2 | 0.00 | 0.38 | 0.38 | 88 | ||
| 20260902025021 | 21 | 113 | 1.6 | 4.8 | 0.00 | 0.38 | 0.38 | 88 | |
| 20260902024022 | 21 | 0.0 | 0.0 | 0.00 | 0.38 | 0.38 | 88 | ||
| 20260902023042 | 21 | 90 | 1.6 | 4.8 | 0.00 | 0.38 | 0.38 | 87 | 1014.0 |
| 20260902022021 | 22 | 135 | 1.6 | 4.8 | 0.00 | 0.38 | 0.38 | 87 | 1014.0 |
| 20260902021021 | 22 | 45 | 1.6 | 4.8 | 0.00 | 0.38 | 0.38 | 87 | 1013.9 |
| 20260902020041 | 22 | 45 | 1.6 | 4.8 | 0.00 | 0.38 | 0.38 | 87 | 1014.1 |
| 20260902015021 | 22 | 45 | 1.6 | 6.4 | 0.00 | 0.38 | 0.38 | 87 | 1014.0 |
| 20260902014021 | 22 | 45 | 1.6 | 4.8 | 0.00 | 0.38 | 0.38 | 87 | 1013.9 |
| 20260902013021 | 22 | 0.0 | 0.0 | 0.00 | 0.38 | 0.38 | 87 | 1013.8 | |
| 20260902012022 | 22 | 0.0 | 1.6 | 0.00 | 0.38 | 0.38 | 87 | 1013.7 | |
| 20260902011022 | 22 | 0.0 | 3.2 | 0.00 | 0.38 | 0.38 | 86 | 1013.6 | |
| 20260902010101 | 22 | 0.0 | 4.8 | 0.00 | 0.38 | 0.38 | 86 | 1013.4 | |
| 20260902005041 | 22 | 0.0 | 3.2 | 0.00 | 0.38 | 0.38 | 86 | 1013.3 | |
| 20260902004021 | 22 | 45 | 1.6 | 6.4 | 0.00 | 0.38 | 0.38 | 86 | 1013.0 |
| 20260902003121 | 23 | 0.0 | 4.8 | 0.00 | 0.38 | 0.38 | 85 | 1012.7 | |
| 20260902002021 | 23 | 0.0 | 4.8 | 0.00 | 0.38 | 0.38 | 85 | 1012.5 | |
| 20260902001020 | 23 | 0.0 | 8.0 | 0.00 | 0.38 | 0.38 | 85 | 1012.4 | |
| 20260902000041 | 23 | 68 | 1.6 | 8.0 | 0.00 | 0.38 | 0.38 | 84 | 1012.4 |
| 20260901235020 | 23 | 0.0 | 3.2 | 0.00 | 0.38 | 0.38 | 84 | 1012.3 | |
| 20260901234041 | 24 | 68 | 1.6 | 8.0 | 0.00 | 0.38 | 0.38 | 83 | 1012.3 |
| 20260901233021 | 24 | 45 | 1.6 | 4.8 | 0.00 | 0.38 | 0.38 | 83 | 1012.6 |
| 20260901232021 | 25 | 45 | 3.2 | 11.3 | 0.00 | 0.38 | 0.38 | 83 | 1012.5 |
| 20260901231041 | 25 | 45 | 3.2 | 8.0 | 0.00 | 0.41 | 0.38 | 82 | 1012.5 |
| 20260901230023 | 25 | 45 | 1.6 | 8.0 | 0.00 | 0.43 | 0.38 | 81 | 1012.5 |
| 20260901225020 | 25 | 45 | 1.6 | 3.2 | 0.00 | 0.43 | 0.38 | 81 | 1012.7 |
| 20260901224020 | 25 | 45 | 3.2 | 6.4 | 0.00 | 0.43 | 0.38 | 81 | 1012.7 |
| 20260901223020 | 25 | 135 | 1.6 | 4.8 | 0.00 | 0.43 | 0.38 | 81 | 1012.7 |
| 20260901222042 | 25 | 68 | 1.6 | 4.8 | 0.00 | 0.43 | 0.38 | 80 | 1012.6 |
| 20260901221020 | 26 | 45 | 1.6 | 6.4 | 0.00 | 0.43 | 0.38 | 80 | 1012.4 |
| 20260901220020 | 26 | 68 | 1.6 | 3.2 | 0.00 | 0.43 | 0.38 | 79 | 1012.4 |
| 20260901215020 | 26 | 90 | 1.6 | 6.4 | 0.00 | 0.43 | 0.38 | 79 | 1012.4 |
| 20260901214022 | 26 | 68 | 3.2 | 6.4 | 0.00 | 0.43 | 0.38 | 78 | 1012.3 |
| 20260901213020 | 26 | 23 | 1.6 | 3.2 | 0.00 | 0.43 | 0.38 | 77 | 1012.3 |
| 20260901212020 | 27 | 68 | 3.2 | 8.0 | 0.00 | 0.43 | 0.38 | 76 | 1012.1 |